User: anonymous   Login
Location: Hokitika
(42.7170°S, 170.9670°E)
Time: 21:24:38
(UTC+13:00)
Language:

Meteor 2-8 Rocket - Orbit

View from above orbital plane
View from above orbital plane
View from above satellite
View from above satellite

Ground track
Ground track

The orbit data is extracted from the following two-line orbital elements,

1 13114U 82025B   19295.93725760 +.00000020 +00000-0 +50678-5 0  9995
2 13114 082.5405 240.2195 0013196 260.5064 161.2251 13.84673358898834
Epoch (UTC): 22 October 2019 22:29:39
Eccentricity: 0.0013196
inclination: 82.5405°
perigee height: 937 km
apogee height: 957 km
right ascension of ascending node: 240.2195°
argument of perigee: 260.5064°
revolutions per day: 13.84673358
mean anomaly at epoch: 161.2251°
orbit number at epoch: 89883

The dashed part of the orbit path shows where the satellite is in the earth's shadow,  

DLR